Terug naar catalogus

COSMOS 2580

ActiefNavigatieLEO
NORAD 62216·PAYLOAD·🇷🇺 Russia

Gelanceerd Dec 4, 2024 vanaf Plesetsk Cosmodrome

Loading…

Volgende Passages (komende 24 uur)

TLE

VersSource: Space-Track

Epoch: Sep 14, 2026, 21:22 UTC

1 62216U 24230A   26257.89064924 -.00000033  00000-0  30147-4 0  9998
2 62216  67.1477 192.8161 0005463 265.7863  94.2597 13.96677237 90662

Volg COSMOS 2580 in realtime met AllMySat

Download on the App Store